Location: Caltech
(34.1382°N, 118.1253°W)
Time: 16:21:12
(UTC-07:00)

Iridium 49 - Visible Passes

Search period start: 22 May 2017 00:00
Search period end: 01 June 2017 00:00
Orbit: 776 x 779 km, 86.4° (Epoch: 21 May)

Date Brightness Start Highest point End Pass type
(mag) Time Alt. Az. Time Alt. Az. Time Alt. Az.
22 May 8.0 01:46:06 21° ENE 01:46:06 21° ENE 01:49:34 10° NE visible
22 May 6.9 03:26:34 34° WNW 03:26:34 34° WNW 03:30:52 10° NNW visible
23 May 8.6 01:12:45 11° ENE 01:12:45 11° ENE 01:13:38 10° ENE visible
23 May 6.3 02:53:14 60° NW 02:53:14 60° NW 02:57:43 10° N visible
24 May 6.6 02:19:53 54° NE 02:19:53 54° NE 02:24:10 10° N visible
24 May 8.1 04:00:21 12° WNW 04:00:21 12° WNW 04:02:05 10° NW visible
25 May 7.5 01:46:31 30° ENE 01:46:31 30° ENE 01:50:13 10° NNE visible
25 May 7.5 03:26:59 23° WNW 03:26:59 23° WNW 03:30:28 10° NNW visible
26 May 8.3 01:13:09 16° ENE 01:13:09 16° ENE 01:15:34 10° NE visible
26 May 6.8 02:53:37 40° NW 02:53:37 40° NW 02:57:38 10° NNW visible
27 May 6.5 02:20:14 56° N 02:20:14 56° N 02:24:20 10° N visible
28 May 7.1 01:46:51 40° NE 01:46:51 40° NE 01:50:38 10° NNE visible
28 May 7.9 03:27:19 15° WNW 03:27:19 15° WNW 03:29:42 10° NW visible
29 May 7.9 01:13:28 23° ENE 01:13:28 23° ENE 01:16:27 10° NNE visible
29 May 7.3 02:53:56 28° WNW 02:53:56 28° WNW 02:57:23 10° NNW visible
30 May 8.5 00:40:03 12° ENE 00:40:03 12° ENE 00:41:13 10° NE visible
30 May 6.8 02:20:32 45° NW 02:20:32 45° NW 02:24:21 10° N visible
31 May 6.9 01:47:07 47° NNE 01:47:07 47° NNE 01:50:53 10° N visible
